Location: *
(49.4547°N, 7.9131°E)
Time: 11:52:11
(UTC+00:00)

Meteor 2-5 Rocket - Pass Details

Date: 22 September 2019
Orbit: 834 x 911 km, 81.2° (Epoch: 14 October)

Event Time Altitude Azimuth Distance (km) Brightness Sun altitude
Rises 19:25:09 0° 345° (NNW) 3,495 7.5 -19.4°
Reaches altitude 10° 19:27:36 10° 343° (NNW) 2,563 6.8 -19.8°
Maximum altitude 19:33:23 65° 263° (W) 986 4.2 -20.6°
Drops below altitude 10° 19:39:12 10° 183° (S) 2,584 6.0 -21.5°
Enters shadow 19:39:18 10° 183° (S) 2,617 6.0 -21.5°
